Location: Capelle
(50.3413°N, 1.9974°E)
Time: 23:09:01
(UTC+00:00)

BREEZE M DEB (TANK) - Pass Details

Date: 12 January 2026
Orbit: 293 x 13752 km, 49.5° (Epoch: 6 February)

Event Time Altitude Azimuth Distance (km) Brightness Sun altitude
Rises 17:13:59 0° 279° (W) 2,061 6.9 -9.4°
Reaches altitude 10° 17:15:47 10° 268° (W) 1,154 5.8 -9.7°
Maximum altitude 17:17:44 34° 198° (SSW) 563 3.3 -10.0°
Drops below altitude 10° 17:20:30 10° 129° (SE) 1,628 4.9 -10.4°
Enters shadow 17:24:17 -1° 120° (ESE) 3,544 6.6 -10.9°
